User: anonymous   Login
Location: Oshawa
(43.9000°N, 78.8670°W)
Time: 15:53:07
(UTC-05:00)
Language:

Cosmos 1805 Rocket - Orbit

View from above orbital plane
View from above orbital plane
View from above satellite
View from above satellite

Ground track
Ground track

The orbit data is extracted from the following two-line orbital elements,

1 17192U 86097B   15060.25916392  .00000515  00000-0  60072-4 0  9999
2 17192 082.5089 323.7626 0016848 351.7592 125.8260 14.83207153524304
Epoch (UTC): 01 March 2015 06:13:11
Eccentricity: 0.0016848
inclination: 82.5089°
perigee height: 607 km
apogee height: 631 km
right ascension of ascending node: 323.7626°
argument of perigee: 351.7592°
revolutions per day: 14.83207153
mean anomaly at epoch: 125.8260°
orbit number at epoch: 52430

The dashed part of the orbit path shows where the satellite is in the earth's shadow,  

DLR